Weather History for KARR - October, 2011

Change the Weather History Date:

Thursday, October 13, 2011

  Actual Average Record
Temperature  
Mean Temperature 56 °F 52 °F  
Max Temperature 63 °F 63 °F 78 °F (2000)
Min Temperature 50 °F 40 °F 30 °F (2009)
Degree Days  
Heating Degree Days 8 14  
Month to date heating degree days 154  
Since 1 July heating degree days 307  
Cooling Degree Days 0 0  
Month to date cooling degree days 9  
Year to date cooling degree days 656  
Growing Degree Days 6 (Base 50)    
Moisture  
Dew Point 56 °F    
Average Humidity 90    
Maximum Humidity 100    
Minimum Humidity 75    
Precipitation  
Precipitation 0.50 in 0.11 in 1.80 in (2001)
Month to date precipitation 1.33  
Year to date precipitation 29.97  
Sea Level Pressure  
Sea Level Pressure 29.56 in    
Wind  
Wind Speed 5 mph (West)    
Max Wind Speed 23 mph    
Max Gust Speed 28 mph    
Visibility 7 miles    
Events Rain    
T = Trace of Precipitation, MM = Missing Value Source: NWS Daily Summary

Daily Weather History Graph

Daily Weather History Graph

Search for Another Location

Airport or City:

Trip Planner

Search our weather history database for the weather conditions in past years. The results will help you decide how hot, cold, wet, or windy it might be!

Date:

Astronomy

Oct. 13, 2011 Rise Set
Actual Time 7:03 AM CDT 6:16 PM CDT
Civil Twilight 6:35 AM CDT 6:44 PM CDT
Nautical Twilight 6:03 AM CDT 7:16 PM CDT
Astronomical Twilight 5:31 AM CDT 7:48 PM CDT
Moon 6:49 PM CDT (10/13) 8:37 AM CDT (10/13)
Length of Visible Light 12h 08m
Length of Day
11h 12m
Full, 98% of the Moon is Illuminated
Oct 13
Full
Oct 19
Last Quarter
Oct 26
New
Nov 2
First Quarter
Nov 10
Full

Hourly Weather History & Observations

Time (CDT) Temp. Dew Point Humidity Pressure Visibility Wind Dir Wind Speed Gust Speed Precip Events Conditions
12:52 AM 62.1 °F 55.0 °F 78% 29.62 in 10.0 mi SE 5.8 mph - N/A   Overcast
1:19 AM 62.6 °F 55.4 °F 77% 29.63 in 10.0 mi SE 5.8 mph - N/A   Overcast
1:52 AM 63.0 °F 57.0 °F 81% 29.61 in 9.0 mi South 8.1 mph - N/A   Overcast
2:23 AM 60.8 °F 57.2 °F 88% 29.62 in 4.0 mi South 4.6 mph - 0.01 in Rain Light Rain
2:41 AM 60.8 °F 59.0 °F 94% 29.61 in 5.0 mi SSE 3.5 mph - 0.01 in Rain Light Rain
2:52 AM 61.0 °F 59.0 °F 93% 29.60 in 4.0 mi South 4.6 mph - 0.01 in Rain Light Rain
3:42 AM 60.8 °F 59.0 °F 94% 29.60 in 4.0 mi Variable 6.9 mph - 0.03 in Rain Light Rain
3:52 AM 60.1 °F 57.9 °F 93% 29.59 in 5.0 mi WNW 6.9 mph - 0.04 in Rain Light Rain
3:59 AM 59.0 °F 57.2 °F 94% 29.59 in 7.0 mi NW 6.9 mph - 0.01 in Rain Light Rain
4:09 AM 59.0 °F 57.2 °F 94% 29.59 in 8.0 mi NW 4.6 mph - 0.01 in Rain Light Rain
4:20 AM 57.2 °F 57.2 °F 100% 29.59 in 6.0 mi Calm Calm - 0.02 in Rain Light Rain
4:27 AM 57.2 °F 57.2 °F 100% 29.59 in 5.0 mi Calm Calm - 0.03 in Rain Light Rain
4:52 AM 57.9 °F 57.0 °F 97% 29.58 in 5.0 mi Calm Calm - 0.07 in Rain Light Rain
5:41 AM 57.2 °F 57.2 °F 100% 29.58 in 4.0 mi Calm Calm - 0.06 in Rain Light Rain
5:48 AM 57.2 °F 57.2 °F 100% 29.58 in 5.0 mi Calm Calm - 0.07 in Rain Light Rain
5:52 AM 57.9 °F 57.0 °F 97% 29.58 in 6.0 mi Calm Calm - 0.07 in Rain Light Rain
6:44 AM 57.2 °F 57.2 °F 100% 29.58 in 2.5 mi Calm Calm - 0.06 in Rain Rain
6:52 AM 57.9 °F 57.0 °F 97% 29.57 in 2.5 mi Calm Calm - 0.08 in Rain Rain
7:02 AM 57.2 °F 57.2 °F 100% 29.57 in 3.0 mi Calm Calm - 0.02 in Rain Light Rain
7:52 AM 57.9 °F 57.0 °F 97% 29.57 in 4.0 mi Calm Calm - 0.07 in Rain Light Rain
8:52 AM 59.0 °F 57.0 °F 93% 29.56 in 5.0 mi Calm Calm - 0.00 in Rain Light Rain
9:50 AM 60.8 °F 57.2 °F 88% 29.56 in 7.0 mi West 3.5 mph - 0.01 in Rain Light Rain
9:52 AM 59.0 °F 57.9 °F 96% 29.56 in 8.0 mi West 4.6 mph - 0.01 in Rain Light Rain
10:52 AM 60.1 °F 57.0 °F 90% 29.56 in 7.0 mi West 4.6 mph - 0.02 in Rain Light Rain
11:04 AM 60.8 °F 57.2 °F 88% 29.56 in 7.0 mi West 3.5 mph - 0.00 in Rain Light Rain
11:12 AM 60.8 °F 57.2 °F 88% 29.56 in 7.0 mi West 3.5 mph - 0.00 in Rain Light Rain
11:52 AM 61.0 °F 57.0 °F 87% 29.55 in 10.0 mi WSW 3.5 mph - 0.01 in   Overcast
12:52 PM 61.0 °F 57.9 °F 90% 29.53 in 4.0 mi West 5.8 mph - 0.02 in Rain Light Rain
1:52 PM 60.1 °F 57.0 °F 90% 29.51 in 9.0 mi West 8.1 mph - 0.02 in Rain Light Rain
1:59 PM 60.8 °F 57.2 °F 88% 29.51 in 8.0 mi West 8.1 mph - 0.00 in Rain Light Rain
2:36 PM 60.8 °F 57.2 °F 88% 29.50 in 8.0 mi West 5.8 mph - 0.01 in   Mostly Cloudy
3:04 PM 62.6 °F 57.2 °F 82% 29.50 in 9.0 mi West 6.9 mph - N/A   Mostly Cloudy
3:52 PM 60.1 °F 57.9 °F 93% 29.50 in 4.0 mi WNW 16.1 mph - 0.04 in Rain Light Rain
3:57 PM 59.0 °F 57.2 °F 94% 29.50 in 1.8 mi NW 23.0 mph 27.6 mph 0.02 in Rain Rain
4:02 PM 59.0 °F 55.4 °F 88% 29.51 in 2.0 mi NW 17.3 mph 27.6 mph 0.03 in Rain Rain
4:11 PM 59.0 °F 55.4 °F 88% 29.50 in 8.0 mi NW 12.7 mph 23.0 mph 0.04 in Rain Light Rain
4:52 PM 60.1 °F 57.0 °F 90% 29.51 in 10.0 mi WNW 8.1 mph - 0.04 in Rain Light Rain
5:52 PM 62.1 °F 57.0 °F 84% 29.51 in 10.0 mi West 6.9 mph - 0.00 in   Overcast
6:52 PM 55.9 °F 54.0 °F 93% 29.51 in 10.0 mi WSW 4.6 mph - N/A   Clear
7:52 PM 57.0 °F 51.1 °F 81% 29.52 in 10.0 mi West 11.5 mph - N/A   Partly Cloudy
8:52 PM 55.9 °F 48.0 °F 75% 29.55 in 10.0 mi WNW 17.3 mph - N/A   Partly Cloudy
9:52 PM 52.0 °F 46.0 °F 80% 29.57 in 10.0 mi WNW 8.1 mph - N/A   Clear
10:52 PM 50.0 °F 45.0 °F 83% 29.56 in 10.0 mi West 8.1 mph - N/A   Clear
11:52 PM 50.0 °F 44.1 °F 80% 29.56 in 10.0 mi West 10.4 mph - N/A   Clear